SCP
6 5 3 3 3 2 1 1 1 1 1 1 1 0 0 0 1 1 1 1 1 1 1 1 1 0 1 1 1 0 0 0 0 0 0 0 0 0 0 0 0 0 0
6 5 3 3 3 2 1 1 1 1 1 1 1 0 0 0 0 1 1 1 1 1 1 1 1 1 1 1 1 1 1 1 1 1 0 0 0 0 0 0 0 0 0
5 5 4 3 3 2 2 2 1 1 1 1 1 0 0 0 0 1 1 1 1 1 1 1 1 1 1 1 1 1 1 1 1 1 1 1 0 0 0 0 0 0 0
5 5 4 3 3 2 2 2 2 1 1 1 0 0 0 0 0 1 0 0 1 1 1 1 1 1 1 1 1 1 1 1 1 1 1 1 1 0 0 0 0 0 0
4 4 4 3 3 2 2 2 2 1 1 1 0 0 0 0 0 0 0 0 1 1 1 1 1 1 1 0 0 1 1 1 1 1 1 1 1 1 0 0 0 0 0
3 3 3 2 2 2 2 2 1 1 1 1 0 0 0 0 0 0 0 0 1 1 1 1 1 1 1 0 0 0 0 1 1 1 1 1 1 1 0 0 0 0 0
3 3 2 1 1 1 1 1 1 1 1 1 1 1 1 0 0 0 0 0 1 1 1 1 1 1 0 0 0 0 0 0 0 1 1 1 1 0 0 0 0 0 0
2 2 1 1 1 1 1 1 1 1 1 1 1 1 1 1 0 0 0 0 0 1 1 1 0 0 0 0 0 0 0 0 0 0 1 0 0 0 0 0 0 0 0
1 1 1 1 1 1 1 1 1 1 1 1 1 1 1 1 0 0 0 0 0 0 0 0 0 0 0 0 0 0 0 0 0 0 0 0 0 0 0 0 0 0 0
1 1 1 1 1 1 1 1 1 1 1 1 1 1 1 1 0 0 0 0 0 0 0 0 0 0 0 0 0 0 0 0 0 0 0 0 0 0 0 0 0 0 0
0 1 1 1 1 1 1 1 1 1 1 1 1 1 1 1 0 0 0 0 0 0 0 0 0 0 0 0 0 0 0 0 0 0 0 0 0 0 0 0 1 0 0
1 1 1 1 1 1 1 1 1 1 1 1 1 1 1 0 0 0 0 0 0 0 0 0 0 0 0 0 0 0 0 0 0 0 0 0 0 0 0 0 1 0 0
1 1 1 1 1 1 2 1 1 1 1 1 1 1 1 1 0 0 0 0 0 0 0 0 0 0 0 0 0 0 0 0 0 0 0 0 0 0 0 0 0 0 0
1 1 1 1 1 2 1 1 1 1 1 1 1 1 1 1 0 0 0 0 0 0 0 0 0 0 0 0 0 0 0 0 0 0 0 0 0 0 0 0 0 0 0
1 1 1 1 1 1 1 1 1 1 0 0 0 0 0 0 0 0 0 0 0 0 0 0 0 1 1 1 1 1 0 0 0 0 0 0 0 0 0 0 0 0 0
1 1 1 1 1 1 1 1 1 0 0 0 0 0 0 0 0 0 0 0 0 0 0 0 1 1 1 1 1 1 0 0 0 0 0 0 0 0 0 0 0 0 0
0 0 0 1 1 1 1 1 1 1 0 0 0 0 0 0 0 0 0 0 0 0 0 1 1 1 1 1 1 1 0 0 0 0 0 0 0 0 0 0 0 0 0
0 0 0 0 1 1 1 1 1 1 1 0 0 0 0 0 0 0 0 0 0 0 0 1 1 1 1 1 0 0 0 0 0 0 0 0 1 1 0 0 0 0 0
0 0 0 1 1 1 1 1 1 1 1 1 0 0 0 0 0 0 0 0 0 1 1 1 1 1 0 0 0 0 0 0 1 1 1 1 1 1 1 0 0 0 0
0 0 0 0 1 1 1 1 1 1 0 1 1 0 0 0 0 0 0 0 1 1 1 1 1 0 0 0 0 0 0 0 1 1 1 1 1 1 1 0 0 0 0
0 0 0 0 0 1 1 1 1 0 0 0 1 0 0 0 0 0 0 1 1 1 1 1 0 0 0 0 0 0 0 0 1 1 1 1 1 1 0 0 0 0 0
0 0 0 0 1 1 0 0 0 0 0 0 0 0 0 0 0 0 1 1 1 1 1 1 0 0 0 0 0 0 0 0 1 1 1 1 1 1 0 0 0 0 0
0 0 0 0 1 0 0 0 0 0 0 0 0 0 0 1 1 1 1 1 1 1 0 0 0 0 0 1 1 1 1 0 1 1 1 1 1 0 0 0 0 0 0
0 0 0 0 0 0 0 0 0 0 0 0 0 0 0 1 1 1 0 0 0 0 0 0 1 1 1 1 1 1 0 0 0 1 1 0 0 0 0 0 0 0 0
0 0 0 0 0 0 0 0 0 0 0 0 0 0 0 0 0 0 0 0 0 0 0 0 1 1 1 1 1 0 0 0 0 0 0 0 0 0 0 0 0 0 0
0 0 0 0 0 0 0 0 0 0 0 0 0 0 0 0 0 0 0 0 0 0 0 0 0 0 1 1 0 0 0 0 0 0 0 0 0 0 0 0 0 0 0
Wind_Speed
2 1 1 0 0 1 1 2 2 2 2 3 3 3 3 4 4 4 5 5 5 4 4 5 5 5 5 5 4 4 4 5 6 6 5 4 5 5 4 5 5 5 5
2 2 1 0 1 1 2 2 2 3 3 3 3 3 4 4 4 5 5 5 5 5 5 5 6 4 4 5 5 5 5 5 5 6 6 5 5 5 5 5 5 5 4
2 2 1 1 1 2 2 2 2 3 3 3 3 3 4 4 4 5 5 6 6 6 6 5 5 5 5 4 5 5 5 5 5 6 6 5 5 4 4 5 5 4 5
2 1 1 1 1 2 1 2 2 3 3 3 3 4 4 4 5 5 5 5 6 6 5 5 5 5 5 5 5 5 5 5 5 5 5 5 4 3 3 4 4 3 4
1 1 1 1 1 1 1 2 2 3 3 3 4 4 4 4 4 5 5 5 5 5 5 4 4 3 4 5 5 6 6 5 5 5 5 5 4 3 4 4 4 4 3
1 1 0 1 1 1 1 2 2 3 3 4 3 4 4 3 4 5 6 5 5 5 4 4 4 3 3 5 6 7 7 7 6 5 5 5 5 5 4 5 4 4 4
1 1 1 0 1 1 2 2 2 3 3 3 3 4 4 4 4 4 5 5 5 5 5 5 4 4 5 5 4 6 6 7 8 7 7 6 6 6 6 6 5 5 5
1 1 1 1 1 1 2 2 2 3 3 3 3 3 3 3 3 3 6 4 4 4 4 4 5 5 6 6 7 6 5 5 5 6 6 7 7 6 6 6 7 6 6
1 1 1 0 0 1 2 2 2 3 3 3 3 3 3 2 2 3 6 4 3 4 4 4 4 5 5 6 7 7 6 6 5 6 7 8 8 8 7 6 6 6 6
1 1 1 0 1 1 2 2 2 2 3 3 3 4 4 4 2 3 5 4 4 4 3 3 2 3 5 6 6 7 7 7 7 5 5 6 8 8 9 8 7 6 6
0 1 0 0 1 1 2 2 2 2 3 3 4 4 3 3 2 2 4 4 5 5 4 4 3 2 5 6 7 7 8 8 7 7 6 6 5 5 6 6 7 6 6
1 1 1 0 1 1 1 2 3 3 3 2 3 3 3 2 2 2 3 5 7 6 5 5 4 4 7 9 7 7 8 8 7 6 5 6 5 5 4 5 6 7 7
1 1 1 0 1 1 1 2 2 2 3 3 3 4 4 3 1 3 4 6 7 6 5 6 8 10 10 9 9 9 8 7 6 6 5 6 5 5 5 5 6 6 8
1 1 1 1 0 0 1 2 3 3 4 4 4 5 5 4 4 4 3 3 5 6 5 6 9 12 10 9 7 6 5 4 5 6 6 6 5 5 6 5 5 5 6
2 1 1 1 0 1 1 2 4 4 4 5 6 6 6 6 7 8 7 6 6 6 7 7 6 5 5 4 4 4 4 4 4 5 6 6 6 6 5 4 5 6 6
3 2 1 1 0 1 1 1 1 3 3 5 6 7 5 5 7 9 8 8 8 7 7 6 5 6 6 5 5 5 4 4 5 5 6 6 6 6 6 5 5 5 6
2 2 2 2 1 2 2 2 2 2 5 7 7 6 7 8 9 9 9 9 9 7 6 5 5 5 6 6 6 6 6 6 5 6 6 6 6 6 6 6 6 6 6
3 2 2 2 2 2 2 3 3 4 4 3 3 5 6 7 8 8 8 8 5 3 4 5 6 6 5 5 6 6 6 6 5 5 5 6 6 6 7 7 6 7 7
3 2 1 2 3 3 3 3 3 4 4 4 4 2 3 6 8 7 6 5 6 6 6 5 5 6 6 5 5 6 6 6 6 6 5 6 6 6 7 7 7 7 7
2 1 2 3 3 3 3 3 3 4 4 4 4 5 5 6 5 4 3 5 6 6 6 6 5 5 6 6 6 6 6 6 6 6 6 6 7 6 7 8 7 7 7
2 3 5 4 2 2 3 4 4 4 5 5 5 4 5 7 6 7 6 6 6 6 6 6 5 5 5 5 6 7 7 6 6 6 7 7 7 7 6 6 7 7 7
2 1 1 1 1 2 3 4 4 4 5 6 5 3 2 5 6 6 6 6 6 5 5 6 6 5 5 6 6 6 6 6 7 7 8 8 8 7 7 7 7 7 7
2 2 2 1 2 2 4 4 4 4 5 6 6 6 6 6 7 7 7 6 6 6 6 6 6 6 5 5 5 6 7 7 8 8 9 9 9 8 7 7 9 9 8
2 2 2 2 3 3 3 4 4 5 5 5 5 5 6 6 6 7 7 6 6 6 6 6 6 8 9 7 6 6 7 8 9 8 11 10 10 9 8 8 9 10 9
2 2 2 2 3 3 3 4 5 5 5 5 5 5 6 6 6 6 6 6 7 7 8 7 6 7 9 9 8 8 8 7 7 9 10 9 10 10 9 9 9 10 10
2 2 2 2 2 3 3 4 5 5 5 5 5 5 5 6 6 6 6 7 7 7 7 7 9 9 10 8 9 8 6 7 8 9 10 9 9 8 9 8 10 9 9
Wind_Direction
144 151 160 162 215 302 302 300 303 304 301 291 293 299 305 303 299 294 293 288 282 288 283 277 279 284 282 281 273 271 273 273 275 286 291 291 286 284 280 273 264 254 235
158 154 142 259 288 301 307 302 303 299 298 298 297 299 305 307 303 298 293 293 289 287 288 289 287 284 281 281 282 280 280 276 272 281 286 288 286 281 273 274 272 262 258
157 153 163 248 286 297 305 306 305 303 305 307 305 304 304 305 301 296 290 288 288 291 292 289 289 289 285 285 285 286 283 278 271 271 280 288 284 277 273 266 271 269 260
166 165 180 253 282 279 290 304 307 303 300 302 302 302 301 303 305 303 299 297 295 294 292 289 288 292 294 293 288 285 284 285 276 272 276 277 277 275 266 266 270 257 252
183 172 194 260 274 266 291 298 297 297 296 299 303 307 307 304 321 323 311 309 306 304 302 298 302 309 313 300 300 304 297 287 282 277 277 279 279 287 276 271 271 273 262
188 208 191 248 281 292 302 309 313 316 318 315 308 310 313 327 6 343 315 312 311 311 314 310 299 273 268 252 261 278 288 290 294 291 287 288 291 284 281 277 277 272 267
191 211 197 232 311 312 315 334 330 326 328 321 318 315 321 348 347 334 319 306 311 317 316 312 313 321 304 297 266 243 254 256 262 280 291 293 295 299 298 286 278 277 279
190 195 193 210 292 325 322 333 330 324 325 318 316 317 319 354 8 336 318 297 307 311 311 309 309 310 324 319 302 293 286 278 263 256 274 282 288 295 290 284 287 277 268
180 188 180 212 307 312 325 335 331 329 333 324 327 332 331 341 2 328 309 300 309 313 313 316 312 314 339 322 299 295 293 289 259 241 254 268 277 274 274 275 267 266 267
219 192 170 236 291 307 329 323 328 322 320 317 336 338 337 334 356 321 307 297 313 311 308 301 311 309 321 320 303 297 294 299 305 295 262 249 252 247 232 241 257 263 266
219 165 151 211 290 315 327 319 311 307 321 324 329 324 323 321 312 308 305 302 314 312 312 312 336 329 297 294 287 283 288 295 293 287 284 276 259 251 239 228 238 254 266
174 181 173 187 305 354 333 324 321 315 302 307 318 316 317 314 311 311 285 281 295 303 305 311 324 313 294 282 272 274 281 280 275 277 279 283 282 277 270 260 245 246 253
167 171 159 216 324 337 318 322 315 310 319 332 331 332 336 341 319 215 244 262 266 277 298 304 292 284 282 268 247 253 261 267 279 282 281 286 290 288 281 268 255 247 251
173 172 190 214 273 27 311 323 328 334 339 338 340 340 341 338 341 345 315 279 253 260 287 283 259 255 254 266 272 254 255 277 289 291 294 290 287 281 274 274 273 262 258
178 187 208 215 358 324 330 336 331 348 349 326 334 333 334 335 352 348 321 314 318 326 315 293 295 303 303 304 305 304 296 279 270 278 286 291 295 292 286 279 274 273 271
192 202 227 235 251 295 308 313 241 257 249 246 259 285 318 323 319 317 308 291 284 286 286 289 306 314 316 319 316 312 308 301 296 292 291 292 296 296 294 289 280 276 274
211 222 263 283 283 293 308 310 314 265 225 230 239 250 260 285 296 299 298 290 277 259 266 296 310 317 320 323 321 317 315 314 309 299 299 302 304 305 303 300 292 287 286
212 202 238 266 290 299 303 304 310 320 328 326 246 222 242 261 273 283 292 293 288 257 303 318 322 324 322 323 321 319 316 314 313 309 308 307 305 303 300 298 297 296 295
223 227 257 292 290 293 298 300 311 321 326 329 331 319 233 256 253 260 270 299 325 334 335 333 333 328 324 323 320 317 316 318 322 317 314 316 312 307 305 305 302 298 289
212 195 255 271 276 289 299 308 319 322 327 331 332 341 346 327 323 327 314 327 329 333 334 332 330 323 319 322 323 320 321 326 325 319 321 321 317 312 311 308 305 299 294
208 169 198 242 272 310 314 316 324 327 329 325 331 3 342 320 330 337 340 342 340 339 336 332 328 323 322 323 324 327 329 331 332 332 327 321 317 314 313 307 304 300 298
227 229 229 273 303 311 314 312 317 320 320 324 332 348 293 302 332 337 340 341 339 338 336 333 330 333 335 333 334 329 332 337 336 334 326 320 315 314 313 311 311 307 304
234 243 259 274 288 284 280 300 314 322 326 333 339 342 339 341 340 342 345 347 344 343 340 337 332 339 346 344 338 335 342 345 337 330 321 316 314 312 312 311 310 309 307
229 257 283 305 307 304 307 314 321 328 328 335 340 338 339 343 344 348 348 349 344 344 345 343 343 348 349 345 341 351 10 355 334 323 320 313 311 312 313 313 312 313 310
231 249 282 297 301 307 316 320 323 322 324 332 333 332 336 342 347 350 350 349 345 346 347 347 347 349 351 353 359 5 9 347 328 323 313 306 310 313 315 313 311 312 313
235 246 271 284 291 303 310 311 313 320 330 335 335 338 344 345 349 351 350 352 349 349 348 350 353 354 356 357 7 3 347 333 325 314 305 304 312 320 322 315 316 315 316